User: anonymous   Login
Location: Springfield
(37.2150°N, 93.2980°W)
Time: 07:27:41
(UTC-05:00)
Language:

Iridium 62 - Orbit

View from above orbital plane
View from above orbital plane
View from above satellite
View from above satellite

Ground track
Ground track

The orbit data is extracted from the following two-line orbital elements,

1 25285U 98021A   15087.24768917  .00000695  00000-0  24122-3 0  9991
2 25285 086.4009 203.2759 0002271 101.1315 259.0136 14.34218450888645
Epoch (UTC): 28 March 2015 05:56:40
Eccentricity: 0.0002271
inclination: 86.4009°
perigee height: 776 km
apogee height: 779 km
right ascension of ascending node: 203.2759°
argument of perigee: 101.1315°
revolutions per day: 14.34218450
mean anomaly at epoch: 259.0136°
orbit number at epoch: 88864

The dashed part of the orbit path shows where the satellite is in the earth's shadow,  

DLR